Wind_Speed
14 13 12 12 12 12 12 12 12 12 11 11 9 8 6 5 5 5 5 6 7 7 7 7 6 5 4 4 4 4 5 6 8 8 8 9 9 10 10 10 10 12
16 14 13 12 13 13 12 11 11 11 11 10 8 7 6 5 5 4 4 6 7 7 8 9 8 7 6 4 3 4 5 6 7 8 8 8 9 10 10 11 11 12
16 15 14 13 13 14 13 12 11 10 10 10 9 7 6 5 5 4 4 5 5 6 7 8 9 9 8 6 5 5 6 6 7 7 7 8 9 10 11 11 12 12
17 16 15 13 12 13 13 13 13 12 11 10 9 7 5 5 4 4 4 4 3 4 4 6 7 8 8 7 7 6 6 6 6 6 7 8 8 9 10 10 11 11
17 16 16 15 12 13 14 15 15 14 12 11 9 8 6 5 4 4 4 3 2 2 3 4 5 6 7 7 7 6 6 6 5 5 6 7 8 8 8 8 8 9
17 17 17 16 14 14 15 16 15 12 11 11 10 9 7 6 5 5 4 3 3 2 2 3 3 4 5 5 5 5 5 4 4 3 4 5 7 7 7 6 6 6
17 17 19 18 16 16 15 15 14 11 10 10 10 9 8 8 6 6 5 4 3 2 2 2 1 2 2 3 3 4 3 3 3 2 2 2 3 5 5 5 5 5
16 17 19 19 19 17 15 14 14 13 11 10 10 9 8 8 7 6 5 4 3 1 1 1 1 1 1 0 1 2 3 3 3 2 1 1 1 3 3 3 3 3
16 17 18 19 19 18 15 15 15 15 12 11 11 10 8 8 6 5 4 4 3 2 1 1 2 2 2 2 2 3 3 4 4 4 5 5 4 4 4 3 2 2
14 15 16 17 17 16 15 15 16 15 13 12 12 11 10 9 7 5 5 5 5 4 3 3 2 3 3 3 4 4 4 5 6 7 8 8 8 7 6 5 4 4
13 14 14 14 14 14 14 15 17 16 14 13 13 12 13 11 9 7 5 6 7 7 5 5 4 4 5 5 5 6 6 8 9 10 9 10 11 12 11 9 7 7
13 14 14 14 13 13 12 15 17 16 15 15 14 13 13 13 12 10 8 9 10 9 8 8 7 6 7 8 8 8 8 9 11 12 10 9 12 15 16 15 12 9
12 13 13 13 13 13 14 16 17 18 18 17 15 13 13 14 14 13 13 13 12 11 11 11 10 10 11 10 10 10 10 11 13 14 13 13 14 15 17 18 16 12
11 10 10 10 11 12 14 16 18 19 20 18 16 14 13 15 17 16 14 13 11 10 11 11 11 12 14 12 11 11 11 12 13 13 14 15 16 16 18 19 18 15
8 9 10 10 10 11 13 16 18 19 20 19 16 14 13 14 16 16 14 12 11 11 13 14 14 14 13 12 11 10 10 10 10 11 13 13 14 16 17 17 17 16
7 9 10 11 11 12 12 15 17 18 18 17 16 13 12 13 14 14 13 13 13 15 17 18 16 13 12 11 11 10 10 10 10 11 11 11 13 14 14 13 13 13
7 8 8 9 11 11 12 13 14 15 15 15 15 13 13 14 15 14 13 13 14 14 14 14 13 12 11 11 11 10 10 10 10 9 9 10 11 12 12 11 10 10
7 6 7 8 10 10 11 11 12 13 14 14 14 14 15 16 16 14 12 11 12 12 12 12 11 11 11 10 9 8 7 7 7 8 8 9 10 10 11 11 10 10
5 5 5 5 8 10 10 10 10 11 13 15 15 14 15 15 13 11 10 9 10 10 10 9 9 8 8 8 7 6 5 4 4 4 5 6 8 9 10 10 10 9
3 5 4 3 4 7 8 9 8 9 12 13 13 12 12 11 10 9 9 9 8 8 8 7 7 7 8 9 8 7 6 4 2 2 3 5 7 8 9 10 9 8
2 3 3 3 3 4 6 7 7 7 9 10 8 9 9 9 8 8 8 8 7 7 7 7 8 9 9 9 9 9 7 6 4 2 2 4 6 7 8 9 9 9
2 2 2 2 2 2 4 7 7 7 7 8 9 9 9 10 9 9 8 8 7 6 6 6 6 7 9 9 10 10 9 8 6 4 3 2 3 4 5 6 6 6
1 1 0 1 1 2 4 6 8 9 10 11 11 10 9 8 8 8 8 8 7 6 5 4 4 6 7 8 10 10 10 9 7 6 4 2 1 2 3 4 3 2
2 2 3 5 6 6 7 9 11 12 12 12 11 10 10 9 9 10 9 8 7 6 5 4 4 5 6 7 9 9 9 9 8 6 5 3 2 2 3 4 4 4
4 4 3 6 9 10 11 12 13 14 13 12 12 12 11 11 11 10 8 7 7 6 6 5 4 4 5 6 7 8 9 9 8 7 6 5 5 5 5 5 4 4
11 10 8 7 7 9 11 12 13 14 14 14 14 13 12 12 11 9 7 6 5 5 5 5 5 3 2 3 5 6 7 8 8 8 7 7 8 7 8 8 7 7
Wind_Direction
201 195 186 171 159 149 146 148 147 141 132 125 130 138 142 137 114 90 81 84 80 74 73 71 71 79 96 108 107 98 97 103 105 105 105 106 107 109 111 114 118 116
206 201 195 177 160 152 149 148 149 146 134 121 119 125 136 142 129 105 90 87 79 69 65 63 63 66 75 91 103 100 104 108 105 101 101 102 105 110 111 113 115 112
210 208 204 189 168 158 152 148 148 148 142 128 114 112 127 139 145 132 112 101 89 76 68 64 64 65 67 75 89 101 106 105 102 95 91 95 104 110 112 111 112 109
211 210 208 199 179 162 156 155 154 154 158 145 120 114 126 134 151 155 137 125 108 89 79 71 68 66 65 68 76 89 101 102 99 93 84 87 100 108 110 110 111 109
211 210 208 203 188 169 164 169 170 165 165 155 129 123 130 133 151 165 162 156 142 119 99 84 73 67 64 62 62 68 84 94 95 92 86 89 98 105 106 108 110 108
212 209 205 202 193 182 176 178 182 176 166 154 137 137 143 145 158 168 170 172 165 162 138 108 89 71 62 55 54 56 64 75 79 81 90 97 103 106 106 109 112 105
212 208 205 202 196 193 188 184 191 193 176 157 146 149 156 156 163 172 178 181 172 167 160 142 127 91 67 50 42 36 36 45 51 61 89 109 117 120 115 111 114 108
212 208 205 202 198 197 195 194 202 206 192 168 158 163 170 167 164 174 187 197 194 180 175 184 191 191 179 75 18 357 353 351 350 346 297 266 203 174 158 134 125 123
208 207 204 203 200 199 198 202 213 219 212 190 176 179 189 188 178 179 198 215 220 223 246 264 263 265 271 276 283 302 308 306 308 303 289 279 262 233 218 205 183 173
200 201 202 202 202 203 204 208 217 225 223 210 197 195 202 207 202 200 217 237 242 242 241 241 251 268 276 284 294 296 295 295 296 291 284 278 270 258 244 235 222 212
206 204 204 204 208 212 214 217 221 224 224 220 215 210 209 214 217 218 235 254 256 255 253 247 249 261 274 291 301 294 290 295 293 284 276 274 275 274 266 255 240 227
225 222 220 220 224 229 231 229 226 222 221 223 226 224 218 217 219 218 227 246 253 253 254 258 262 268 282 295 296 290 286 281 278 276 273 270 271 272 270 265 255 242
242 235 231 232 240 245 241 234 227 221 220 224 228 228 222 221 223 221 220 231 240 242 246 253 258 269 284 288 287 289 283 267 265 271 276 275 270 268 267 264 258 250
254 245 237 237 244 246 238 229 223 220 219 222 224 225 224 226 230 230 226 226 228 233 243 250 260 276 283 280 280 289 286 274 268 267 270 274 272 268 266 262 258 255
259 246 238 237 242 243 234 225 221 218 216 219 223 227 230 231 232 231 226 224 229 240 251 257 265 276 278 274 277 285 284 279 274 268 267 271 272 270 269 265 261 260
253 248 241 237 235 234 227 218 216 214 214 218 221 225 230 231 232 230 225 229 242 251 256 257 259 263 266 268 270 270 274 278 276 272 270 269 269 270 270 269 267 266
254 254 249 239 231 226 220 214 212 212 212 216 216 215 221 227 231 232 230 236 246 251 251 249 248 253 258 260 260 259 267 272 269 267 266 263 265 267 270 275 276 278
278 280 270 252 236 226 219 214 213 213 212 213 212 210 215 221 225 226 226 232 238 239 238 238 242 250 252 247 245 245 250 256 259 262 263 262 265 269 273 278 282 286
309 312 301 266 241 232 231 229 228 225 221 218 213 210 212 215 217 217 213 214 219 221 225 233 240 241 232 220 211 206 206 218 241 262 271 274 276 277 279 282 287 293
346 332 323 302 251 233 234 237 233 230 233 231 223 216 215 212 214 218 212 204 203 205 209 214 210 201 194 189 185 180 177 177 194 256 282 284 283 283 286 288 290 291
19 344 316 298 267 233 229 232 227 224 231 230 217 207 202 188 182 186 182 177 179 181 184 182 176 174 175 178 180 180 179 184 195 222 263 281 286 288 291 291 289 287
49 63 27 324 291 260 244 238 230 217 201 180 163 159 154 146 141 139 134 137 142 147 155 163 169 172 175 180 187 188 189 192 199 208 223 266 292 303 311 309 303 293
317 179 162 237 254 264 241 218 200 182 166 157 151 146 142 141 139 133 127 125 125 129 137 153 170 179 184 190 194 197 200 201 202 209 219 228 293 2 18 23 19 354
0 288 231 212 211 212 195 181 175 171 168 167 163 155 150 151 148 138 128 118 110 108 114 133 169 191 197 200 202 202 206 208 206 208 212 200 156 99 80 70 65 70
326 319 267 219 214 207 190 180 179 179 177 175 170 161 156 156 154 145 130 116 102 91 89 101 132 174 195 204 204 200 203 208 206 200 197 185 159 134 118 103 93 93
288 290 284 265 237 217 205 197 192 189 185 180 177 173 169 167 168 162 149 131 109 86 75 74 76 89 154 201 199 190 193 201 199 191 186 176 158 143 131 125 122 116
Height
822 823 824 825 826 828 829 831 833 834 835 837 838 840 841 841 842 843 843 844 844 844 845 845 845 846 846 847 847 848 848 848 847 848 848 848 848 847 847 847 847 847
821 822 823 824 825 827 829 831 832 833 834 835 837 839 840 841 842 843 844 844 845 845 845 846 846 846 847 848 848 849 849 849 849 849 849 849 849 849 848 848 848 848
820 821 823 823 824 826 828 830 831 832 833 834 835 838 839 841 842 843 844 845 845 846 846 846 846 847 848 848 849 850 850 851 851 851 851 851 851 850 850 850 850 850
818 820 822 823 824 825 828 829 830 831 833 833 834 836 839 840 842 843 844 845 845 846 846 847 847 847 848 849 850 851 851 852 852 852 852 852 852 852 852 852 852 851
817 819 821 823 824 825 827 828 829 830 832 833 834 836 838 839 841 842 843 844 845 846 846 847 847 848 849 849 850 851 852 852 853 853 853 853 853 853 853 854 854 853
817 819 820 823 824 825 825 827 829 830 831 832 833 835 837 838 840 841 842 844 844 846 846 847 848 848 849 850 850 851 852 853 853 854 854 854 854 854 854 854 855 855
816 818 819 822 823 824 825 826 829 831 831 832 832 834 836 837 839 841 842 843 844 845 846 847 848 848 849 850 851 852 852 853 854 854 855 855 855 855 855 855 855 855
816 817 819 821 822 824 825 826 828 830 831 831 831 834 836 837 838 840 842 843 844 845 846 846 847 848 848 850 850 852 852 853 854 854 855 856 855 856 855 855 855 855
815 817 818 820 821 823 825 826 827 829 830 830 831 833 835 836 838 839 841 843 844 845 846 846 846 847 848 849 850 851 852 852 853 854 855 856 856 856 856 855 855 855
814 816 818 819 821 822 824 825 826 828 829 830 831 832 834 836 837 838 840 841 843 844 845 845 846 846 847 848 849 850 851 852 853 853 854 856 857 857 856 856 855 855
814 816 817 819 821 822 823 825 826 827 828 829 830 831 833 835 836 837 838 840 841 843 844 844 845 846 846 847 848 849 850 852 853 853 853 854 856 857 857 856 855 855
813 815 817 818 820 821 822 823 825 826 827 828 829 830 832 833 833 835 836 838 840 841 842 842 843 844 845 846 847 848 849 850 851 852 852 852 854 856 857 856 855 854
812 814 816 817 819 819 820 822 823 825 826 827 828 829 830 831 832 833 834 835 837 838 839 840 841 842 844 845 845 846 847 848 849 850 851 851 852 853 854 854 854 853
811 813 815 816 817 818 819 820 821 823 824 826 827 828 829 830 831 831 832 833 835 836 837 838 839 840 842 843 844 845 845 846 847 848 848 849 849 850 851 851 851 851
811 813 814 815 816 817 818 819 820 822 823 825 826 828 828 829 830 831 832 833 834 835 836 836 837 839 840 841 842 843 844 844 845 846 846 847 847 847 848 848 848 848
812 812 814 815 815 816 817 819 820 821 823 824 825 827 828 829 829 830 831 831 832 833 834 834 836 837 838 839 840 841 842 842 843 843 844 844 845 845 845 845 845 845
813 813 814 815 815 816 817 818 820 821 822 823 824 825 826 828 828 829 829 829 830 831 832 833 834 835 836 837 838 839 840 841 841 842 842 842 843 843 843 843 844 844
814 814 815 815 816 817 817 818 819 820 821 822 823 824 824 825 826 827 827 827 828 829 830 831 832 833 834 835 836 838 839 839 840 840 841 841 841 841 842 842 842 842
814 815 816 816 816 817 818 818 819 819 820 820 820 821 822 823 824 825 825 825 826 827 828 830 830 831 832 834 835 836 837 838 839 839 840 840 840 840 840 840 840 840
814 815 815 816 817 817 817 818 818 819 819 819 818 819 820 821 822 824 824 824 825 826 827 828 829 830 831 833 834 835 836 837 838 839 839 839 839 839 839 838 838 839
814 814 815 816 816 817 817 817 818 818 819 819 819 820 820 821 822 823 823 823 824 825 826 827 828 829 831 832 833 834 835 836 837 837 838 838 838 838 837 837 837 837
814 814 814 815 816 816 817 817 817 818 818 818 819 820 821 821 822 822 823 824 825 826 826 827 828 829 830 831 832 833 834 835 836 836 836 837 836 836 836 836 836 836
815 814 814 815 816 817 817 817 817 817 818 818 819 820 821 822 823 823 824 824 825 826 827 828 828 829 829 830 831 832 833 833 834 835 835 835 835 835 835 835 835 835
815 815 814 814 816 817 817 816 816 817 817 818 819 820 822 823 824 824 824 825 826 826 827 828 828 828 829 829 830 831 831 832 833 833 834 834 834 834 835 835 835 835
814 814 814 814 815 816 816 816 816 817 817 818 819 820 822 823 824 824 825 825 826 826 827 828 828 828 828 828 829 829 830 831 832 832 833 833 834 834 834 835 835 835
814 814 814 814 814 814 815 815 816 816 817 818 819 820 821 822 823 823 824 825 825 826 826 826 826 827 827 827 827 828 829 830 831 831 832 833 833 834 834 835 836 836